TimePST,TemperatureF,Dew PointF,Humidity,Sea Level PressureIn,VisibilityMPH,Wind Direction,Wind SpeedMPH,Gust SpeedMPH,PrecipitationIn,Events,Conditions,WindDirDegrees,DateUTC
12:00 AM,35.6,35.6,100,30.18,10.0,North,5.8,-,N/A,Rain,Light Rain,360,2012-12-29 08:00:00
1:00 AM,35.6,35.6,100,30.19,10.0,NNE,4.6,-,N/A,Rain,Light Rain,30,2012-12-29 09:00:00
2:00 AM,35.6,35.6,100,30.18,10.0,NNE,3.5,-,N/A,Rain,Light Rain,30,2012-12-29 10:00:00
2:29 AM,35.6,35.6,100,30.19,4.0,North,3.5,-,N/A,Rain,Light Rain,10,2012-12-29 10:29:00
3:00 AM,37.4,35.6,93,30.19,4.0,North,3.5,-,N/A,Rain,Light Rain,360,2012-12-29 11:00:00
4:00 AM,36,36,100,30.19,4,NNE,3.5,,,Rain,Light Rain,30,2012-12-29 12:00:00
4:00 AM,35.6,35.6,100,30.19,4.0,NNE,3.5,-,N/A,Rain,Light Rain,30,2012-12-29 12:00:00
5:00 AM,35.6,35.6,100,30.19,10.0,Calm,Calm,-,N/A,Rain,Light Rain,0,2012-12-29 13:00:00
6:00 AM,35.6,35.6,100,30.19,4.0,Calm,Calm,-,N/A,Rain,Light Rain,0,2012-12-29 14:00:00
6:48 AM,35.6,35.6,100,30.18,2.5,ENE,3.5,-,N/A,Rain,Light Rain,70,2012-12-29 14:48:00
7:00 AM,35.6,35.6,100,30.18,2.2,Calm,Calm,-,N/A,Rain,Light Rain,0,2012-12-29 15:00:00
8:00 AM,35.6,35.6,100,30.19,10.0,NW,3.5,-,N/A,Rain,Light Rain,320,2012-12-29 16:00:00
9:00 AM,37.4,35.6,93,30.20,4.0,North,3.5,-,N/A,Rain,Light Rain,10,2012-12-29 17:00:00
10:00 AM,37,37,98,30.21,3,Calm,Calm,,,Rain,Light Rain,,2012-12-29 18:00:00
10:00 AM,37.4,37.4,100,30.21,3.0,NE,2.3,-,N/A,Rain,Light Rain,40,2012-12-29 18:00:00
10:18 AM,37.4,37.4,100,30.20,2.2,ENE,3.5,-,N/A,,Light Drizzle,70,2012-12-29 18:18:00
11:00 AM,37.4,37.4,100,30.20,2.2,ESE,3.5,-,N/A,,Light Drizzle,110,2012-12-29 19:00:00
11:48 AM,37.4,37.4,100,30.19,2.2,NNE,3.5,-,N/A,Rain,Light Rain,20,2012-12-29 19:48:00
12:00 PM,37.4,37.4,100,30.19,3.0,North,3.5,-,N/A,Rain,Light Rain,350,2012-12-29 20:00:00
12:19 PM,37.4,37.4,100,30.19,5.0,Calm,Calm,-,N/A,,Light Drizzle,0,2012-12-29 20:19:00
12:44 PM,37.4,37.4,100,30.18,5.0,NNE,3.5,-,N/A,Rain,Light Rain,30,2012-12-29 20:44:00
1:00 PM,39.2,37.4,93,30.18,5.0,NE,3.5,-,N/A,Rain,Light Rain,50,2012-12-29 21:00:00
2:00 PM,39.2,37.4,93,30.17,5.0,NNE,3.5,-,N/A,Rain,Light Rain Showers,30,2012-12-29 22:00:00
2:53 PM,37.4,37.4,100,30.19,5.0,East,6.9,-,N/A,Rain,Light Rain Showers,90,2012-12-29 22:53:00
3:00 PM,37.4,37.4,100,30.19,5.0,East,8.1,-,N/A,Rain,Light Rain Showers,90,2012-12-29 23:00:00
4:00 PM,38,37,96,30.19,7,North,2.3,,,Rain,Light Rain Showers,10,2012-12-30 00:00:00
4:00 PM,37.4,37.4,100,30.18,8.0,North,3.5,-,N/A,,Overcast,360,2012-12-30 00:00:00
5:00 PM,37.4,35.6,93,30.19,8.0,ENE,3.5,-,N/A,,Mostly Cloudy,70,2012-12-30 01:00:00
5:14 PM,35.6,35.6,100,30.19,7.0,NNE,3.5,-,N/A,,Scattered Clouds,20,2012-12-30 01:14:00
5:34 PM,35.6,35.6,100,30.19,7.0,NNE,3.5,-,N/A,,Mostly Cloudy,30,2012-12-30 01:34:00
6:00 PM,35.6,33.8,93,30.20,7.0,NW,5.8,-,N/A,,Mostly Cloudy,320,2012-12-30 02:00:00
6:23 PM,35.6,33.8,93,30.20,10.0,North,3.5,-,N/A,,Scattered Clouds,10,2012-12-30 02:23:00
7:00 PM,33.8,32.0,93,30.20,15.0,NNE,3.5,-,N/A,,Partly Cloudy,30,2012-12-30 03:00:00
8:00 PM,33.8,33.8,100,30.22,10.0,Calm,Calm,-,N/A,,Mostly Cloudy,0,2012-12-30 04:00:00
9:00 PM,32.0,32.0,100,30.23,10.0,South,3.5,-,N/A,,Mostly Cloudy,190,2012-12-30 05:00:00
10:00 PM,32,31,97,30.25,10,Calm,Calm,,,,Partly Cloudy,,2012-12-30 06:00:00
10:00 PM,32.0,32.0,100,30.25,10.0,NE,3.5,-,N/A,,Scattered Clouds,50,2012-12-30 06:00:00
11:00 PM,33.8,32.0,93,30.25,10.0,Calm,Calm,-,N/A,,Partly Cloudy,0,2012-12-30 07:00:00